GW7064 Weather Reports


Display with metric or nautical units.
time (UTC)temp
F
wind
direction
speed
MPH
gust
MPH
rain 1hr
in
rain 24hr
in
rain mn
in
humidity
%
barometer
mb
20260504172759 65 291 9.0 12.0 0.00 0.00 0.00 42 1005.3
20260504172259 65 281 7.0 9.0 0.00 0.00 0.00 41 1005.6
20260504171759 65 277 6.0 10.0 0.00 0.00 0.00 41 1005.2
20260504171257 64 266 6.0 9.0 0.00 0.00 0.00 41 1005.5
20260504170758 64 261 6.0 8.0 0.00 0.00 0.00 40 1005.3
20260504170259 64 279 7.0 11.0 0.00 0.00 0.00 40 1005.7
20260504160301 61 285 12.0 16.0 0.00 0.00 0.00 43 1006.4
20260504150759 61 272 8.0 12.0 0.00 0.00 0.00 43 1006.5
20260504150258 60 268 11.0 15.0 0.00 0.00 0.00 43 1006.4
20260504141300 59 265 8.0 10.0 0.00 0.00 0.00 45 1006.3
20260504140800 58 303 7.0 9.0 0.00 0.00 0.00 48 1006.4
20260504140303 58 257 7.0 10.0 0.00 0.00 0.00 45 1006.5
20260504130759 54 288 8.0 9.0 0.00 0.00 0.00 51 1007.4
20260504130259 54 275 5.0 7.0 0.00 0.00 0.00 52 1007.4
20260504120300 50 237 5.0 8.0 0.00 0.00 0.00 56 1007.9
20260504110258 45 70 1.0 3.0 0.00 0.00 0.00 78 1008.3
20260504100300 41 90 1.0 2.0 0.00 0.00 0.00 86 1008.2
20260504081801 41 90 1.0 2.0 0.00 0.00 0.00 83 1008.2
20260504081258 40 99 1.0 2.0 0.00 0.00 0.00 85 1008.2
20260504080759 40 77 1.0 2.0 0.00 0.00 0.00 86 1008.4
20260504080257 40 0 0.0 0.0 0.00 0.00 0.00 85 1008.5
20260504070259 40 67 0.0 1.0 0.00 0.00 0.00 85 1008.2
20260504050259 34 48 0.0 0.0 0.00 0.00 0.00 92 1008.7
20260504045757 34 34 0.0 0.0 0.00 0.00 0.00 92 1008.8
20260504045256 33 86 1.0 2.0 0.00 0.00 0.00 93 1008.8
20260504044759 33 122 0.0 2.0 0.00 0.00 0.00 93 1008.8
20260504044257 33 162 1.0 2.0 0.00 0.00 0.00 94 1008.9
20260504043756 33 78 2.0 3.0 0.00 0.00 0.00 94 1008.8
20260504043258 33 134 0.0 1.0 0.00 0.00 0.00 95 1008.9
20260504042758 33 66 0.0 0.0 0.00 0.00 0.00 94 1009.0
20260504042257 33 157 2.0 2.0 0.00 0.00 0.00 94 1009.0
20260504041759 33 177 1.0 2.0 0.00 0.00 0.00 95 1009.0
20260504041258 33 140 1.0 2.0 0.00 0.00 0.00 94 1008.9
20260504040756 33 84 2.0 3.0 0.00 0.00 0.00 94 1008.9
20260504040256 33 134 0.0 2.0 0.00 0.00 0.00 94 1008.9
20260504035756 33 125 1.0 2.0 0.00 0.00 0.00 94 1008.8
20260504035257 33 121 1.0 2.0 0.00 0.00 0.00 93 1008.8
20260504034757 33 91 0.0 0.0 0.00 0.00 0.00 93 1008.9
20260504034257 33 78 1.0 2.0 0.00 0.00 0.00 93 1008.9
20260504033757 33 86 2.0 3.0 0.00 0.00 0.00 93 1008.8
20260504033258 33 105 0.0 2.0 0.00 0.00 0.00 92 1009.0
20260504032756 33 88 1.0 2.0 0.00 0.00 0.00 92 1009.0
20260504032256 33 78 1.0 2.0 0.00 0.00 0.00 92 1008.9
20260504031756 33 134 1.0 2.0 0.00 0.00 0.00 92 1009.0
20260504031259 33 92 0.0 2.0 0.00 0.00 0.00 91 1008.9
20260504030757 34 71 0.0 2.0 0.00 0.00 0.00 91 1008.9
20260504030257 34 137 0.0 2.0 0.00 0.00 0.00 90 1008.8
20260504025756 34 62 1.0 2.0 0.00 0.00 0.00 90 1008.8
20260504025257 34 127 1.0 2.0 0.00 0.00 0.00 90 1008.8
20260504024756 34 140 1.0 2.0 0.00 0.00 0.00 89 1008.8
20260504024258 34 42 0.0 1.0 0.00 0.00 0.00 89 1008.9
20260504023758 34 77 0.0 1.0 0.00 0.00 0.00 88 1008.9
20260504023257 35 76 2.0 2.0 0.00 0.00 0.00 88 1008.9
20260504022756 35 0 0.0 0.0 0.00 0.00 0.00 87 1009.0
20260504022258 35 83 0.0 2.0 0.00 0.00 0.00 87 1009.0
20260504021756 35 69 1.0 2.0 0.00 0.00 0.00 87 1008.9
20260504020943 35 73 1.0 2.0 0.00 0.00 0.00 86 1008.9
20260504020257 36 91 0.0 2.0 0.00 0.00 0.00 85 1008.9
20260504015756 36 73 1.0 2.0 0.00 0.00 0.00 85 1008.9
20260504015257 36 92 0.0 1.0 0.00 0.00 0.00 83 1008.8
20260504014756 36 121 0.0 2.0 0.00 0.00 0.00 82 1008.8
20260504014257 37 69 0.0 1.0 0.00 0.00 0.00 82 1008.8
20260504013757 37 66 0.0 1.0 0.00 0.00 0.00 81 1008.8
20260504013256 37 95 0.0 1.0 0.00 0.00 0.00 80 1008.7
20260504012757 37 0 0.0 0.0 0.00 0.00 0.00 79 1008.7
20260504012256 37 65 1.0 2.0 0.00 0.00 0.00 78 1008.7
20260504011756 38 63 0.0 1.0 0.00 0.00 0.00 78 1008.6
20260504011257 38 76 1.0 2.0 0.00 0.00 0.00 78 1008.4
20260504010757 38 75 0.0 1.0 0.00 0.00 0.00 76 1008.4
20260504010257 38 78 1.0 2.0 0.00 0.00 0.00 76 1008.3
20260504005756 39 69 0.0 1.0 0.00 0.00 0.00 74 1008.3
20260504005256 39 72 0.0 1.0 0.00 0.00 0.00 73 1008.2
20260504004759 39 0 0.0 0.0 0.00 0.00 0.00 72 1008.2
20260504004256 40 0 0.0 0.0 0.00 0.00 0.00 71 1008.2
20260504003756 40 75 0.0 1.0 0.00 0.00 0.00 71 1008.1
20260504003256 40 0 0.0 0.0 0.00 0.00 0.00 71 1008.1
20260504002756 40 66 0.0 1.0 0.00 0.00 0.00 69 1008.0
20260504002257 41 67 2.0 2.0 0.00 0.00 0.00 68 1008.0
20260504001756 41 81 1.0 2.0 0.00 0.00 0.00 67 1007.9
20260504001256 42 76 0.0 2.0 0.00 0.00 0.00 69 1007.8
20260504000757 42 77 1.0 2.0 0.00 0.00 0.00 68 1007.7
20260504000257 43 70 1.0 2.0 0.00 0.00 0.00 66 1007.7
20260503235757 44 84 1.0 2.0 0.00 0.00 0.00 65 1007.6
20260503235256 44 55 1.0 2.0 0.00 0.00 0.00 66 1007.6
20260503234756 45 78 0.0 2.0 0.00 0.00 0.00 64 1007.4
20260503234259 46 61 1.0 2.0 0.00 0.00 0.00 62 1007.3
20260503233758 47 140 0.0 1.0 0.00 0.00 0.00 59 1007.3
20260503233257 49 31 0.0 1.0 0.00 0.00 0.00 57 1007.3
20260503232756 49 319 0.0 2.0 0.00 0.00 0.00 51 1007.1
20260503232256 49 299 2.0 4.0 0.00 0.00 0.00 52 1007.0
20260503231757 49 310 4.0 5.0 0.00 0.00 0.00 50 1006.9
20260503231257 49 273 2.0 3.0 0.00 0.00 0.00 49 1006.9
20260503230756 49 311 4.0 5.0 0.00 0.00 0.00 50 1006.9
20260503230256 49 287 2.0 4.0 0.00 0.00 0.00 49 1007.0
20260503225756 49 298 2.0 2.0 0.00 0.00 0.00 50 1007.0
20260503225256 49 321 3.0 4.0 0.00 0.00 0.00 50 1006.9
20260503224757 49 310 3.0 5.0 0.00 0.00 0.00 51 1006.9
20260503224257 49 318 6.0 10.0 0.00 0.00 0.00 50 1007.0
20260503223758 49 319 4.0 7.0 0.00 0.00 0.00 50 1006.9
20260503223257 49 322 2.0 5.0 0.00 0.00 0.00 51 1006.8
20260503222757 49 308 4.0 7.0 0.00 0.00 0.00 49 1006.8
20260503222257 49 300 4.0 6.0 0.00 0.00 0.00 50 1006.7
20260503221756 49 230 2.0 4.0 0.00 0.00 0.00 50 1006.7
20260503221256 49 303 3.0 7.0 0.00 0.00 0.00 50 1006.7
20260503220758 49 323 5.0 9.0 0.00 0.00 0.00 50 1006.7
20260503220257 49 315 4.0 8.0 0.00 0.00 0.00 50 1006.7
20260503215756 49 312 6.0 8.0 0.00 0.00 0.00 48 1006.5
20260503215256 49 306 4.0 7.0 0.00 0.00 0.00 49 1006.6
20260503214756 49 307 6.0 8.0 0.00 0.00 0.00 50 1006.6
20260503214256 49 321 6.0 9.0 0.00 0.00 0.00 50 1006.7
20260503213756 49 208 4.0 9.0 0.00 0.00 0.00 48 1006.6
20260503213257 49 299 3.0 7.0 0.00 0.00 0.00 47 1006.5
20260503212757 49 269 2.0 4.0 0.00 0.00 0.00 48 1006.4
20260503212256 50 298 5.0 8.0 0.00 0.00 0.00 48 1006.4
20260503211758 50 295 3.0 7.0 0.00 0.00 0.00 47 1006.3
20260503211256 50 293 6.0 9.0 0.00 0.00 0.00 48 1006.3
20260503210756 50 307 6.0 9.0 0.00 0.00 0.00 47 1006.4
20260503210257 49 302 3.0 8.0 0.00 0.00 0.00 48 1006.2
20260503205757 49 306 8.0 12.0 0.00 0.00 0.00 48 1006.2
20260503205256 50 317 4.0 7.0 0.00 0.00 0.00 47 1006.2
20260503204757 50 310 7.0 10.0 0.00 0.00 0.00 45 1006.1
20260503204256 50 309 6.0 9.0 0.00 0.00 0.00 47 1005.9
20260503203756 49 313 9.0 12.0 0.00 0.00 0.00 46 1006.1
20260503203256 49 311 10.0 12.0 0.00 0.00 0.00 48 1006.1
20260503202757 49 314 11.0 14.0 0.00 0.00 0.00 48 1006.1
20260503202256 49 300 7.0 10.0 0.00 0.00 0.00 45 1006.2
20260503201756 49 299 4.0 8.0 0.00 0.00 0.00 50 1005.9
20260503201256 49 303 8.0 12.0 0.00 0.00 0.00 51 1005.9
20260503200757 49 261 2.0 3.0 0.00 0.00 0.00 46 1005.9
20260503200301 49 311 5.0 10.0 0.00 0.00 0.00 46 1006.0
20260503195757 49 303 7.0 10.0 0.00 0.00 0.00 47 1006.0
20260503195256 49 303 7.0 10.0 0.00 0.00 0.00 49 1006.0
20260503194756 49 313 7.0 12.0 0.00 0.00 0.00 49 1006.0
20260503194257 49 314 9.0 11.0 0.00 0.00 0.00 48 1005.9
20260503193757 49 309 7.0 12.0 0.00 0.00 0.00 48 1005.9
20260503193257 49 304 9.0 11.0 0.00 0.00 0.00 48 1005.9
20260503192757 49 306 9.0 11.0 0.00 0.00 0.00 47 1005.8
20260503192257 49 318 10.0 13.0 0.00 0.00 0.00 47 1005.8
20260503191756 49 313 9.0 13.0 0.00 0.00 0.00 46 1006.1
20260503191256 49 311 9.0 13.0 0.00 0.00 0.00 47 1006.2
20260503190757 50 307 7.0 10.0 0.00 0.00 0.00 49 1006.1
20260503190256 50 297 4.0 8.0 0.00 0.00 0.00 49 1005.9
20260503185756 50 303 8.0 10.0 0.00 0.00 0.00 50 1006.0
20260503185256 49 299 6.0 9.0 0.00 0.00 0.00 47 1005.8
20260503184756 49 311 8.0 10.0 0.00 0.00 0.00 47 1005.9
20260503184257 49 308 8.0 11.0 0.00 0.00 0.00 49 1006.0
20260503183757 49 308 5.0 7.0 0.00 0.00 0.00 48 1006.1
20260503183257 49 308 8.0 10.0 0.00 0.00 0.00 48 1006.0
20260503182756 49 309 9.0 11.0 0.00 0.00 0.00 50 1006.1
20260503182256 49 300 10.0 14.0 0.00 0.00 0.00 47 1006.0
20260503181757 50 306 7.0 9.0 0.00 0.00 0.00 47 1006.0
20260503181300 50 311 9.0 12.0 0.00 0.00 0.00 45 1005.9
20260503180757 51 294 9.0 14.0 0.00 0.00 0.00 47 1005.8
20260503180257 51 265 2.0 4.0 0.00 0.00 0.00 48 1005.7
20260503175756 50 296 3.0 6.0 0.00 0.00 0.00 50 1005.6
20260503175256 50 294 6.0 9.0 0.00 0.00 0.00 51 1005.6
20260503174756 50 306 5.0 10.0 0.00 0.00 0.00 49 1005.8
20260503174256 50 304 10.0 15.0 0.00 0.00 0.00 49 1005.8
20260503173757 51 301 7.0 12.0 0.00 0.00 0.00 48 1005.2
20260503173256 51 298 10.0 13.0 0.00 0.00 0.00 49 1005.7